DateTimeUTC,F1_A11,F1_S11,BsB_S11,BsG_S11,BsR_S11,BbsB_S11,BbsG_S11,BbsR_S11,BaB_A11,BaG_A11,BaR_A11,Tu_S11,T_S11,Uu_S11,U_S11,P_S11,T1_A11
2021-03-31T16:00:00Z,00000200,21000000,,,,,,,-000.58,-000.32,-000.19,16.9,24.0,,00.0,0651.7,30.9
2021-03-31T16:01:00Z,00000200,21000000,,,,,,,0000.23,0000.33,0000.45,16.9,24.0,,00.0,0651.7,30.9
2021-03-31T16:02:00Z,00000200,21000000,,,,,,,-000.11,-000.28,-000.18,16.9,24.0,,00.0,0651.7,30.9
2021-03-31T16:03:00Z,00000200,61000000,,,,,,,0000.72,0000.74,0000.21,16.9,24.0,,00.0,0651.7,30.9
2021-03-31T16:04:00Z,00000200,41000000,0002.57,0001.55,0001.13,-000.06,0000.27,0000.20,0000.61,0000.40,0000.55,17.0,23.8,,00.0,0652.6,30.9
2021-03-31T16:05:00Z,00000200,01000000,0002.81,0001.77,0001.35,0000.49,0000.29,0000.32,0000.13,0000.45,0000.40,17.0,23.8,,00.0,0652.6,30.9
2021-03-31T16:06:00Z,00000200,01000000,0002.48,0001.60,0001.01,0000.47,0000.15,0000.19,0000.68,0000.46,0000.43,17.0,23.8,,00.0,0652.6,30.9
2021-03-31T16:07:00Z,00000200,01000000,0002.34,0001.85,0001.26,0000.35,0000.24,0000.21,0000.71,0000.82,0000.29,17.0,23.8,,00.0,0652.7,30.9
2021-03-31T16:08:00Z,00000200,01000000,0001.96,0001.57,0001.26,0000.31,0000.26,0000.27,0000.75,0000.69,0000.78,17.0,23.8,,00.0,0652.7,30.9
2021-03-31T16:09:00Z,00000200,01000000,0002.75,0001.51,0001.35,0000.31,0000.34,0000.45,0000.84,0000.59,0000.11,17.0,23.8,,00.0,0652.7,30.9
2021-03-31T16:10:00Z,00000200,01000000,0001.89,0001.70,0001.21,0000.37,0000.30,0000.24,0000.64,0000.88,0000.68,17.0,23.8,,00.0,0652.7,30.9
2021-03-31T16:11:00Z,00000200,01000000,0001.94,0001.81,0001.21,0000.40,0000.18,0000.14,0000.64,0000.60,0000.34,17.0,23.7,,00.0,0652.7,30.9
2021-03-31T16:12:00Z,00000200,01000000,0002.08,0001.54,0001.16,0000.16,0000.22,0000.40,0000.54,0000.09,0000.22,17.0,23.7,,00.0,0652.7,30.9
2021-03-31T16:13:00Z,00000200,01000000,0002.76,0001.57,0001.13,0000.40,0000.46,-000.12,0000.30,0000.49,0000.37,17.0,23.7,,00.0,0652.7,30.9
2021-03-31T16:14:00Z,00000200,01000000,0002.54,0001.48,0001.15,0000.38,0000.32,0000.15,0000.54,0000.24,0000.37,16.9,23.7,,00.0,0652.9,30.9
2021-03-31T16:15:00Z,00000200,01000000,0001.87,0001.58,0001.18,0000.56,0000.05,0000.19,0000.42,0000.52,0000.34,16.9,23.7,,00.0,0652.9,30.9
2021-03-31T16:16:00Z,00000200,01000000,0002.34,0001.27,0001.16,0000.62,0000.29,0000.02,0000.67,0001.04,0000.69,16.9,23.7,,00.0,0653.1,30.9
2021-03-31T16:17:00Z,00000200,01000000,0002.44,0001.79,0000.74,0000.37,0000.24,0000.10,0000.79,0000.08,0000.37,16.9,23.7,,00.0,0653.2,30.9
2021-03-31T16:18:00Z,00000200,01000000,0001.79,0001.60,0001.02,0000.26,0000.24,0000.24,0000.74,0001.46,0000.51,16.9,23.7,,00.0,0653.1,30.9
2021-03-31T16:19:00Z,00000200,01000000,0002.46,0001.84,0001.21,0000.22,0000.29,0000.11,0001.63,0000.67,0000.90,16.9,23.7,,00.0,0653.2,30.9
2021-03-31T16:20:00Z,00000200,01000000,0001.97,0001.80,0001.31,0000.47,0000.26,0000.39,0000.47,0001.06,0000.85,16.9,23.7,,00.0,0653.2,30.9
2021-03-31T16:21:00Z,00000200,01000000,0002.28,0001.70,0001.18,0000.41,0000.25,0000.59,0000.86,0000.07,0000.42,16.9,23.7,,00.0,0653.2,30.9
2021-03-31T16:22:00Z,00000200,01000000,0001.50,0001.78,0001.25,0000.40,0000.15,0000.27,0000.59,0000.73,0000.74,16.9,23.7,,00.0,0653.1,30.9
2021-03-31T16:23:00Z,00000200,01000000,0002.91,0001.62,0001.16,0000.90,0000.08,0000.45,0000.47,0000.76,-000.00,16.9,23.6,,00.0,0653.0,30.9
2021-03-31T16:24:00Z,00000200,01000000,0002.27,0001.76,0001.16,0000.67,0000.43,0000.24,0000.80,0000.10,0000.76,16.9,23.6,,00.0,0653.0,30.9
2021-03-31T16:25:00Z,00000200,01000000,0002.43,0001.72,0000.94,0000.73,0000.39,0000.15,0000.45,0001.20,0000.22,16.9,23.6,,00.0,0653.1,30.9
2021-03-31T16:26:00Z,00000200,01000000,0002.23,0001.58,0001.02,0000.24,0000.43,0000.50,0000.93,0000.25,0000.85,16.9,23.6,,00.0,0653.1,30.9
2021-03-31T16:27:00Z,00000200,01000000,0002.25,0001.80,0000.98,0000.34,0000.00,0000.42,0000.66,0001.02,0000.32,17.0,23.6,,00.0,0653.1,30.9
2021-03-31T16:28:00Z,00000200,01000000,0002.44,0001.58,0000.87,0000.03,0000.38,0000.17,0000.37,0000.71,0000.46,17.1,23.7,,00.0,0653.2,30.9
2021-03-31T16:29:00Z,00000200,01000000,0002.55,0001.62,0001.17,0000.63,0000.03,0000.29,0000.73,-000.06,0000.29,17.1,23.7,,00.0,0653.2,30.9
2021-03-31T16:30:00Z,00000200,01000000,0002.62,0001.67,0001.04,0000.30,0000.07,0000.28,0000.15,0000.60,0000.39,17.2,23.7,,00.0,0653.1,31.0
2021-03-31T16:31:00Z,00000200,01000000,0001.87,0001.61,0001.36,0000.45,0000.16,0000.46,0000.19,0000.35,0000.02,17.2,23.7,,00.0,0653.2,31.0
2021-03-31T16:32:00Z,00000200,01000000,0001.98,0001.86,0000.91,0000.60,0000.10,0000.16,0000.84,0000.82,0000.63,17.2,23.8,,00.0,0653.2,31.0
2021-03-31T16:33:00Z,00000200,01000000,0002.23,0001.75,0000.93,0000.77,0000.33,0000.28,0000.87,0000.27,0000.61,17.2,23.8,,00.0,0653.3,31.0
2021-03-31T16:34:00Z,00000200,01000000,0002.83,0001.65,0001.02,0000.56,0000.22,0000.07,0000.50,0000.55,0000.28,17.2,23.8,,00.0,0653.3,30.9
2021-03-31T16:35:00Z,00000200,01000000,0002.46,0001.58,0000.98,0000.20,0000.31,0000.15,0000.27,0000.30,0000.06,17.2,23.8,,00.0,0653.4,30.9
2021-03-31T16:36:00Z,00000200,01000000,0002.37,0001.55,0001.29,0000.63,0000.09,0000.24,0000.71,0000.51,0000.56,17.1,23.8,,00.0,0653.6,30.9
2021-03-31T16:37:00Z,00000200,01000000,0002.39,0002.04,0001.02,0000.52,0000.26,0000.18,0000.21,0000.60,0000.34,17.1,23.7,,00.0,0653.5,30.9
2021-03-31T16:38:00Z,00000200,01000000,0002.64,0001.84,0001.32,0000.14,0000.30,0000.04,0000.96,0000.27,0000.40,17.1,23.7,,00.0,0653.6,30.9
2021-03-31T16:39:00Z,00000200,01000000,0002.55,0001.66,0001.45,0000.85,0000.26,0000.51,0000.62,0000.76,0000.60,17.1,23.7,,00.0,0653.6,30.9
2021-03-31T16:40:00Z,00000200,01000000,0002.31,0001.73,0001.30,0000.41,0000.35,0000.32,0000.50,0000.59,0000.38,17.1,23.7,,00.0,0653.5,30.9
2021-03-31T16:41:00Z,00000200,01000000,0002.24,0002.05,0001.37,0000.11,0000.55,0000.30,0000.04,0000.29,0000.24,17.1,23.7,,00.0,0653.4,30.9
2021-03-31T16:42:00Z,00000200,01000000,0002.43,0001.95,0001.19,0000.37,0000.12,0000.63,0000.12,0000.44,0000.16,17.2,23.8,,00.0,0653.4,30.9
2021-03-31T16:43:00Z,00000200,01000000,0001.89,0001.35,0001.37,0000.63,0000.34,0000.19,0001.31,0000.50,0000.91,17.2,23.8,,00.0,0653.5,31.0
2021-03-31T16:44:00Z,00000200,01000000,0002.60,0001.83,0001.01,0000.57,0000.26,0000.13,0000.29,0000.57,0000.08,17.3,23.8,,00.0,0653.4,31.0
2021-03-31T16:45:00Z,00000200,01000000,0001.49,0001.95,0001.10,0000.63,0000.32,0000.42,0000.68,0000.66,0000.93,17.3,23.8,,00.0,0653.4,31.0
2021-03-31T16:46:00Z,00000200,01000000,0001.96,0001.66,0000.87,0000.61,0000.19,0000.04,0001.02,0000.69,0000.31,17.3,23.8,,00.0,0653.3,31.0
2021-03-31T16:47:00Z,00000200,01000000,0002.10,0001.60,0000.96,0000.37,0000.08,0000.36,0000.48,0000.51,0000.48,17.2,23.8,,00.0,0653.5,30.9
2021-03-31T16:48:00Z,00000200,01000000,0002.57,0001.50,0001.05,0000.57,0000.33,0000.16,0000.49,0000.71,0000.00,17.2,23.8,,00.0,0653.4,30.9
2021-03-31T16:49:00Z,00000200,01000000,0001.96,0001.59,0001.29,0000.74,0000.43,0000.33,0000.69,0000.58,0000.59,17.2,23.8,,00.0,0653.3,30.9
2021-03-31T16:50:00Z,00000200,01000000,0002.25,0001.50,0001.12,0000.45,0000.25,0000.42,0000.60,0000.45,0000.54,17.2,23.8,,00.0,0653.4,30.9
2021-03-31T16:51:00Z,00000200,01000000,0002.23,0001.52,0001.05,0000.37,0000.10,0000.02,0001.17,0000.83,0000.66,17.2,23.8,,00.0,0653.5,30.9
2021-03-31T16:52:00Z,00000200,01000000,0002.28,0001.70,0001.18,0000.37,-000.14,0000.26,0000.28,0000.60,0000.72,17.1,23.8,,00.0,0653.5,30.9
2021-03-31T16:53:00Z,00000200,01000000,0001.84,0001.58,0001.30,0000.76,0000.36,0000.25,0000.72,0000.85,0000.33,17.1,23.8,,00.0,0653.6,30.9
2021-03-31T16:54:00Z,00000200,01000000,0002.19,0001.75,0001.30,0000.56,0000.27,0000.05,0001.20,0000.48,0001.09,17.1,23.8,,00.0,0653.5,30.9
2021-03-31T16:55:00Z,00000200,01000000,0002.11,0001.49,0001.40,0000.83,0000.44,0000.49,0000.37,0000.91,-000.16,17.1,23.8,,00.0,0653.5,31.0
2021-03-31T16:56:00Z,00000200,01000000,0001.93,0001.84,0001.02,0000.22,0000.20,0000.20,0000.67,-000.01,0000.64,17.1,23.8,,00.0,0653.4,31.0
2021-03-31T16:57:00Z,00000200,41000000,,,,,,,0000.56,0000.99,0000.13,17.2,23.8,,00.0,0653.4,30.9
2021-03-31T16:58:00Z,00000200,61000000,,,,,,,-000.15,-000.45,0000.41,16.9,23.9,,00.0,0652.5,30.9
2021-03-31T16:59:00Z,00000200,21000000,,,,,,,-000.41,-000.22,-000.62,16.9,24.0,,00.0,0652.5,30.9
